H-2A R/B(2), 27518

Orbit data source: Space-Track

H-2A R/B(2), 27518 is space debris in HEO originally from a launch on Tue, 10 Sep 2002 UTC launched from the Tanegashima Space Center (TNSTA). Debris objects in space refer to the collection of defunct objects orbiting the Earth. Examples of debris include non-operational satellites, rocket bodies, and fragments generated from explosions, collisions, or faulty payload assembly.

Loading next visibility...
Identifier
27518, 2002-042D
Orbit
HEO
Country
Flag of JPJP / JPN
Related business
Manufacturer
MHI Tobishima
Mission
Spacecraft
Bus & Motor
H-2A STAGE 2, Unknown motor
Mass
4,000 kg wet, 4,000 kg dry
Launch date (UTC)
2002-09-10 (23 years ago)
Launch vehicle
Unknown
Launch site
Tanegashima Space Center (TNSTA)
Object type
Payload
Rocket body
Debris
Shape & HBR
Cyl, 4.6 m
Radar Cross Section
35.186 m², Large (>1 m²)

Expand to show TLE details & history
Last TLE update: 19 hours ago

TLE from 19 hours ago
0 H-2A R/B(2)
1 27518U 02042D   25261.14525066  .00000077  00000-0  38031-3 0  9998
2 27518  28.9119 307.9179 7125314 129.4022 318.5525  2.37656113198904
Epoch: 2025-09-18T03:29Z
TLE epoch observation values (Epoch: 2025-09-18T03:29:09.657Z)
Latitude
-0°
Longitude
-101.61202°
Altitude
14,943.517 km
Speed
4.537 km/s
True Right ascension
20h 31m 57s
True Declination
0° 00' 00"
Sunlit
Object was in daylight at epoch
Visualization orbit readout
Latitude
Unknown
Longitude
Unknown
Altitude
Unknown
Speed
Unknown
Apparent Right ascension
Unknown
Apparent Declination
Unknown
Sunlit
N/A
Visualization observer readout
Local Sidereal Time
15:46:55
Azimuth
Unknown
Elevation
Unknown
Doppler factor
Unknown
Orbital elements
Apogee altitude
34,247.973 km
Perigee altitude
441.435 km
Semi-major axis
23,722.841 km
Eccentricity
0.71253
Inclination
28.9119°
RAAN
307.9179°
Arg. of periapsis
129.4022°
True anomaly
230.57865°
Mean anomaly
318.5525°
Eccentric anomaly
278.13863°
Mean motion
0.59401 °/min
Orbital period
606.05 mins
BSTAR
0.00038031
Loading maneuver chart data...
Computing Atmospheric mass density...
Loading historical data...
Loading historical data...
Loading historical data...
Loading historical data...
Loading historical data...
Loading historical data...
Loading historical data...

Documentation

Showing up to 5 results
|